Theta_e
301 303 304 305 306 307 308 310 314 319 327 333 333 333 334 332 330 330 332 335 336 338 339 337 337 334 333 333 334 332 329 328 328 326 325 326 325 324 323 322 321 321 320
298 302 302 305 304 306 308 309 312 316 323 329 331 333 332 332 330 331 332 333 333 335 337 338 336 335 334 333 334 332 332 329 327 325 325 326 325 322 322 321 321 320 320
297 299 300 305 304 305 307 309 312 316 321 331 330 332 332 333 333 328 331 330 332 331 333 336 336 336 334 333 332 333 331 329 328 326 325 326 323 323 322 322 321 320 320
299 298 299 302 305 305 306 307 309 312 315 327 328 330 330 332 332 333 329 330 329 330 330 331 333 334 335 334 332 331 330 328 328 327 324 326 324 323 323 322 322 321 320
299 297 299 300 305 305 305 306 308 310 314 321 328 328 329 329 331 334 328 327 327 327 326 329 329 330 332 334 333 331 331 328 327 326 325 325 325 324 322 321 322 321 320
299 297 298 299 304 304 304 305 305 309 313 317 328 327 328 329 329 330 328 328 327 326 325 327 328 328 329 331 332 332 331 329 328 327 326 326 325 323 322 321 322 321 321
298 297 297 299 300 302 303 304 304 306 311 317 323 322 323 326 327 328 329 326 325 326 324 323 325 325 328 329 331 333 332 330 329 328 326 327 325 323 323 322 322 320 321
299 301 298 298 299 301 302 302 302 303 309 314 320 320 315 318 322 324 327 328 325 325 324 325 324 324 325 327 327 331 333 331 330 329 329 327 326 324 323 323 320 321 320
300 301 299 297 298 300 300 301 302 302 303 310 313 318 313 311 316 320 322 327 327 323 322 324 324 324 324 325 326 327 325 327 330 331 331 329 327 326 325 324 323 323 321
299 300 298 296 297 300 301 300 302 302 303 305 311 319 320 317 312 313 319 322 328 325 323 323 323 323 324 324 325 323 320 319 324 330 331 330 329 327 326 325 324 324 322
294 295 295 295 295 299 301 300 300 301 303 304 307 310 318 318 320 317 312 318 325 326 324 323 323 321 323 324 323 322 318 316 317 325 329 330 330 328 327 327 326 325 324
292 293 295 295 299 299 301 300 301 302 302 304 306 308 311 315 316 317 316 317 320 324 324 322 322 322 322 322 323 320 316 313 314 318 324 327 329 329 328 327 327 327 325
293 293 295 297 299 300 300 300 301 302 302 303 305 307 310 311 315 320 319 318 318 322 324 324 323 324 323 322 321 318 317 312 312 315 319 322 324 326 327 327 327 327 327
295 297 297 298 298 299 300 301 301 302 303 304 306 308 310 312 314 319 319 318 315 317 320 322 323 323 324 323 322 316 320 311 310 311 313 317 319 321 321 323 324 325 326
295 295 297 298 297 298 299 300 301 301 302 303 304 305 308 312 315 320 321 321 318 313 316 320 321 325 324 322 320 321 321 313 309 308 309 312 315 317 318 318 319 321 322
292 293 296 297 297 296 296 298 300 300 300 301 302 302 304 306 311 324 322 322 321 319 315 321 322 324 326 325 320 320 321 314 309 307 306 307 310 313 314 315 315 316 318
291 293 296 297 294 294 295 296 298 299 299 299 299 299 300 303 308 316 324 323 322 322 318 320 323 325 324 324 324 322 320 319 317 307 305 305 305 307 309 310 311 312 313
294 295 296 295 293 293 293 294 296 298 297 297 296 297 297 300 300 307 312 313 320 321 320 318 320 322 323 323 324 321 322 321 319 309 305 305 304 304 305 305 306 307 308
295 295 295 292 291 292 292 293 295 296 297 296 295 295 295 297 296 298 305 308 310 314 316 318 318 321 322 321 320 320 321 320 318 312 304 303 303 303 303 303 303 304 304
294 294 292 289 289 291 290 291 294 294 294 295 296 293 292 293 294 295 299 298 303 311 313 316 319 319 321 321 322 319 318 320 319 320 310 307 305 303 302 302 302 302 302
292 295 291 288 287 288 289 289 291 292 291 292 293 293 292 293 293 293 295 294 295 302 309 312 312 314 316 318 317 320 320 320 319 321 320 316 311 310 309 302 305 302 301
289 290 290 286 284 286 288 289 289 291 289 288 289 290 291 290 291 292 292 291 291 293 298 305 307 307 305 302 302 305 317 318 316 321 321 321 319 318 318 314 304 302 299
286 287 288 287 285 283 287 288 289 290 287 285 286 287 288 288 289 292 293 292 291 291 290 293 298 296 299 295 296 302 307 312 315 309 313 320 321 320 323 320 303 301 299
285 285 286 287 286 286 287 287 287 289 286 284 284 284 285 285 287 290 295 294 293 292 292 293 293 293 293 294 295 298 300 302 308 305 302 315 315 315 310 306 296 297 297
286 285 287 285 285 284 287 286 286 288 287 284 284 284 283 283 287 289 293 292 291 292 292 292 291 291 292 291 292 299 301 303 308 304 296 301 309 310 307 305 303 296 295
287 286 286 286 287 285 286 286 285 287 287 286 284 283 285 284 286 287 285 288 287 289 290 291 291 292 293 293 292 294 295 298 301 302 293 298 303 305 304 304 300 299 300
Wind_Speed
4 3 5 6 6 7 7 8 7 7 3 3 5 6 5 6 7 4 6 11 14 18 20 20 19 19 19 17 17 17 17 16 15 15 15 12 14 10 11 11 10 9 9
5 4 4 5 6 7 7 7 7 6 4 3 4 5 7 6 5 7 6 7 11 15 18 19 20 19 18 19 17 17 15 16 15 14 14 12 13 11 10 9 9 8 8
4 5 4 5 5 6 9 7 7 6 4 4 5 7 6 8 6 5 6 5 7 10 12 15 17 18 19 19 19 16 16 16 13 16 14 12 11 11 10 11 9 8 8
4 5 4 4 5 6 6 6 6 5 4 4 4 5 5 5 7 5 6 6 4 5 8 13 13 16 17 19 19 18 19 17 16 14 14 13 12 12 11 10 10 9 8
4 4 3 4 5 5 5 6 5 4 4 3 4 5 6 5 6 5 7 7 6 5 4 10 13 12 17 19 19 18 19 18 17 16 15 15 14 12 11 10 10 9 8
4 4 4 5 5 5 5 6 6 4 4 3 2 5 6 6 5 5 7 8 7 7 5 8 8 8 14 16 17 20 19 20 18 18 17 15 15 12 11 10 11 9 9
4 3 4 5 5 6 5 7 5 4 2 4 3 4 3 6 7 4 7 6 9 8 6 6 5 4 7 14 15 18 19 19 18 19 19 15 15 14 12 11 11 11 9
7 7 5 5 5 5 6 6 6 3 3 2 1 3 3 2 2 3 3 7 9 8 8 8 7 7 7 7 11 16 17 19 19 19 18 17 16 16 15 15 13 12 12
7 9 5 5 5 4 5 6 6 5 3 2 3 2 3 3 3 4 5 4 6 6 7 9 9 9 8 6 7 11 13 14 16 18 18 18 17 17 17 17 15 13 11
2 5 5 5 5 4 5 5 5 5 4 3 3 1 1 3 4 3 3 6 5 8 9 8 8 8 10 7 9 11 13 13 14 18 19 20 18 19 18 18 17 16 14
5 5 5 6 5 4 4 6 7 6 3 2 3 2 0 3 1 3 4 4 5 8 7 8 9 8 10 10 8 10 14 14 14 14 18 20 20 19 18 18 18 18 16
4 5 6 5 5 4 4 5 6 6 5 4 4 4 1 2 2 1 2 6 6 6 7 7 8 8 8 8 11 15 15 15 15 14 15 17 20 19 19 18 18 18 17
3 5 4 5 4 4 5 6 7 5 4 4 5 3 3 3 1 0 1 3 4 3 3 5 8 8 8 8 10 15 16 17 17 16 15 16 17 18 20 19 19 18 17
3 5 5 4 5 5 6 6 5 4 6 4 6 4 3 4 3 4 2 4 3 2 2 5 5 8 9 9 11 17 11 18 18 17 17 16 16 16 15 17 18 17 17
4 5 4 5 6 6 7 7 4 4 5 4 5 4 3 4 3 7 4 2 3 4 7 4 4 9 8 7 9 11 13 14 18 18 18 17 17 16 15 15 14 15 15
5 5 4 4 5 6 8 8 5 6 5 5 4 4 3 3 5 6 6 4 3 6 4 4 5 3 8 7 10 11 11 13 18 19 19 18 17 16 16 16 15 15 16
6 4 5 4 6 7 7 7 8 7 7 7 6 6 6 6 3 3 5 5 5 5 7 2 3 3 3 7 7 8 8 10 8 17 19 19 18 17 16 16 16 16 16
5 4 5 5 6 7 7 8 8 8 7 8 10 7 8 6 9 7 5 5 1 2 3 6 3 3 4 5 6 8 8 8 9 12 18 18 18 17 16 17 16 16 16
6 5 6 6 6 7 8 8 7 7 7 8 9 9 9 9 9 7 7 4 3 1 1 2 3 3 3 2 3 3 4 5 5 8 15 15 15 15 16 16 15 16 16
4 4 6 5 5 5 7 7 7 6 7 7 8 8 10 9 8 7 7 7 5 2 3 1 2 2 2 2 2 2 3 3 4 3 5 9 13 15 14 14 14 13 14
4 4 6 5 5 5 5 6 6 6 6 6 6 7 8 11 14 11 6 8 7 4 3 3 3 2 2 2 2 1 5 3 3 3 3 4 4 5 7 13 11 15 15
5 5 5 5 6 4 11 11 6 4 6 5 5 5 6 10 10 11 9 12 9 5 5 5 1 1 3 2 3 4 4 6 4 1 4 5 5 6 6 6 12 13 15
3 4 4 5 5 4 8 10 9 4 4 5 5 5 5 6 7 5 1 6 8 10 7 3 5 7 3 1 1 4 4 4 2 3 2 3 4 5 3 1 8 12 8
2 2 3 3 3 2 7 8 6 3 4 4 5 5 5 6 8 7 3 3 6 5 6 5 5 3 4 7 4 2 3 5 3 3 4 3 2 4 4 6 14 11 10
1 0 2 3 2 0 4 7 5 3 3 3 4 5 5 5 9 10 3 4 3 3 3 5 6 4 4 7 6 2 1 2 2 0 6 3 2 3 5 6 8 16 16
1 1 2 3 4 2 3 2 3 3 2 2 1 3 6 5 8 10 5 4 4 3 3 3 2 2 2 4 9 5 2 1 2 1 4 3 2 2 2 3 5 6 6
Wind_Direction
321 329 334 338 333 329 328 322 320 321 349 240 159 168 153 130 145 154 159 174 173 171 169 164 161 160 160 158 152 151 151 145 142 144 139 140 139 144 130 124 120 117 114
314 323 322 325 338 325 320 314 312 309 317 288 173 170 152 119 128 146 152 175 173 174 174 167 164 166 165 163 160 158 152 147 157 156 151 164 145 155 142 138 136 135 130
297 310 318 322 317 319 313 315 313 306 299 265 175 153 149 138 118 141 147 150 173 165 173 166 168 169 173 171 167 162 160 156 156 164 162 162 154 159 152 147 152 154 147
288 309 324 316 308 317 304 329 312 306 290 261 154 153 148 135 129 143 149 153 169 171 172 164 166 172 177 171 175 170 168 162 165 171 173 159 168 168 162 158 169 172 165
269 305 313 305 312 309 329 314 304 301 287 294 159 147 154 155 139 136 174 155 168 165 179 176 170 176 176 172 177 179 173 178 170 181 178 171 179 174 181 185 180 187 181
299 336 326 320 318 314 353 303 307 297 261 279 245 166 159 152 139 139 182 176 176 169 173 177 181 177 173 178 183 187 185 185 185 186 190 183 184 172 187 192 194 197 196
347 345 328 316 323 324 324 310 314 315 272 220 139 118 125 140 147 144 174 174 177 177 169 164 162 167 182 180 188 193 195 192 193 192 193 195 183 179 190 200 209 205 206
16 338 326 315 319 328 310 336 347 323 285 315 184 129 149 108 151 151 170 171 179 175 177 181 176 173 188 192 191 195 202 200 200 199 197 195 188 186 192 203 214 210 212
58 313 321 318 315 321 329 329 337 321 301 304 323 142 132 172 123 159 191 175 175 179 184 181 191 183 181 188 189 197 205 200 203 203 197 201 193 194 199 205 208 218 223
239 289 337 319 320 305 310 323 306 320 317 321 314 127 5 129 140 150 164 185 182 196 188 184 189 197 184 187 192 195 206 208 203 205 202 201 206 202 204 205 210 216 212
337 336 315 319 315 310 312 310 326 314 317 315 329 340 162 46 24 152 157 159 193 190 191 188 189 192 196 188 196 207 207 208 207 209 207 205 208 211 210 210 212 214 215
311 328 311 309 311 306 324 314 295 321 346 317 308 293 309 143 180 153 110 164 180 175 196 191 193 190 196 192 199 204 204 205 209 213 210 208 208 211 213 214 218 221 217
298 314 308 339 319 340 323 325 319 329 319 326 308 290 263 252 316 46 156 152 165 136 175 206 196 191 194 201 201 202 205 205 208 211 211 207 208 210 212 214 219 224 224
301 322 342 353 342 340 341 326 303 324 336 310 297 269 269 255 227 236 214 140 114 149 169 184 185 201 199 204 200 199 206 204 209 211 212 210 208 208 214 212 212 216 223
329 335 15 10 343 349 344 332 348 347 335 326 304 297 277 260 231 232 216 159 142 170 210 210 178 194 202 191 202 204 209 200 208 210 211 211 212 211 213 212 212 211 218
327 333 25 9 350 352 354 350 347 2 350 340 328 345 2 303 258 198 198 194 182 205 224 192 214 185 203 207 197 194 202 199 205 208 210 212 213 212 213 214 215 216 219
312 1 23 24 358 2 360 359 351 12 6 346 343 19 9 358 333 22 178 183 196 196 223 215 212 175 191 222 216 197 194 204 208 211 213 209 211 212 214 215 217 221 222
323 7 54 43 12 9 2 1 1 18 8 3 15 359 18 18 25 24 44 32 118 173 190 192 210 196 208 213 226 211 208 202 209 204 209 212 211 212 216 219 220 222 225
335 359 83 44 29 17 9 1 4 15 14 19 19 4 13 25 31 9 26 41 21 345 107 203 207 204 200 176 205 183 193 206 203 201 205 213 215 217 220 222 223 225 226
334 41 92 67 33 31 21 9 4 17 20 24 28 16 26 15 34 24 27 9 354 5 351 266 166 179 198 197 186 167 208 209 194 168 190 204 205 217 221 224 227 225 223
8 52 84 57 36 27 15 5 2 18 20 23 23 20 25 30 27 41 40 5 8 6 341 356 70 43 6 359 318 259 216 195 229 169 192 205 188 205 221 216 229 226 224
52 66 88 70 41 18 353 1 15 17 28 37 25 17 32 22 16 32 57 59 28 39 3 324 340 99 85 14 344 318 290 209 206 59 187 243 192 219 212 196 197 212 217
68 74 103 102 76 27 8 5 5 50 22 18 24 16 31 23 14 15 89 77 53 47 66 14 345 356 340 33 351 309 355 338 33 38 332 243 180 226 215 179 208 205 211
71 85 125 121 99 37 8 5 15 114 65 29 25 21 26 15 9 357 6 41 61 25 20 67 38 26 358 331 304 261 319 294 278 98 13 249 337 62 38 56 34 83 95
15 167 167 153 133 41 8 4 7 145 111 54 27 29 34 22 2 11 23 36 54 40 51 37 84 36 332 337 316 256 59 312 270 310 36 302 31 84 48 54 65 58 59
218 202 195 195 210 252 312 15 50 82 138 176 314 359 13 26 16 25 29 19 31 11 352 356 14 21 15 357 352 38 355 65 317 338 26 340 357 356 124 68 44 27 49